TimeEST,TemperatureF,Dew PointF,Humidity,Sea Level PressureIn,VisibilityMPH,Wind Direction,Wind SpeedMPH,Gust SpeedMPH,PrecipitationIn,Events,Conditions,WindDirDegrees,DateUTC
12:15 AM,28.4,15.8,59,29.63,10.0,North,13.8,21.9,N/A,,Overcast,360,2013-02-17 05:15:00
12:55 AM,28.4,17.6,64,29.66,7.0,North,12.7,20.7,N/A,,Overcast,360,2013-02-17 05:55:00
1:15 AM,26.6,19.4,74,29.63,4.0,North,12.7,18.4,N/A,,Overcast,350,2013-02-17 06:15:00
1:35 AM,26.6,19.4,74,29.60,1.5,North,13.8,20.7,N/A,,Overcast,10,2013-02-17 06:35:00
1:55 AM,24.8,19.4,80,29.60,2.5,North,13.8,19.6,N/A,,Overcast,350,2013-02-17 06:55:00
2:15 AM,24.8,17.6,74,29.62,2.5,North,9.2,19.6,N/A,,Overcast,350,2013-02-17 07:15:00
2:35 AM,24.8,19.4,80,29.59,2.0,NNW,16.1,-,N/A,,Overcast,340,2013-02-17 07:35:00
3:15 AM,23.0,15.8,74,29.56,2.5,North,15.0,21.9,N/A,,Overcast,350,2013-02-17 08:15:00
3:35 AM,21.2,15.8,80,29.55,2.5,North,15.0,21.9,N/A,,Overcast,350,2013-02-17 08:35:00
3:55 AM,21.2,15.8,80,29.54,2.5,NNW,16.1,21.9,N/A,,Mostly Cloudy,340,2013-02-17 08:55:00
4:15 AM,21.2,15.8,80,29.54,3.0,NNW,13.8,23.0,N/A,,Scattered Clouds,330,2013-02-17 09:15:00
4:35 AM,21.2,15.8,80,29.55,2.5,NNW,17.3,25.3,N/A,,Overcast,330,2013-02-17 09:35:00
4:55 AM,21.2,15.8,80,29.53,1.2,NNW,17.3,29.9,N/A,,Overcast,340,2013-02-17 09:55:00
5:35 AM,19.4,15.8,86,29.51,1.2,NNW,17.3,27.6,N/A,,Overcast,330,2013-02-17 10:35:00
5:55 AM,19.4,15.8,86,29.49,1.5,NNW,18.4,28.8,N/A,,Overcast,330,2013-02-17 10:55:00
6:15 AM,19.4,15.8,86,29.47,1.5,NNW,20.7,26.5,N/A,,Overcast,330,2013-02-17 11:15:00
6:35 AM,19.4,12.2,74,29.47,1.2,NNW,18.4,31.1,N/A,,Overcast,340,2013-02-17 11:35:00
7:15 AM,19.4,14.0,80,29.45,1.0,NNW,17.3,28.8,N/A,,Overcast,330,2013-02-17 12:15:00
7:35 AM,19.4,12.2,74,29.45,1.0,NW,19.6,28.8,N/A,,Overcast,320,2013-02-17 12:35:00
8:15 AM,17.6,10.4,73,29.43,0.8,NW,24.2,31.1,N/A,,Overcast,320,2013-02-17 13:15:00
8:35 AM,17.6,12.2,79,29.41,0.8,NW,20.7,31.1,N/A,,Overcast,320,2013-02-17 13:35:00
8:55 AM,17.6,12.2,79,29.40,0.8,NNW,23.0,29.9,N/A,,Overcast,330,2013-02-17 13:55:00
9:15 AM,17.6,10.4,73,29.39,0.8,NW,17.3,28.8,N/A,,Overcast,320,2013-02-17 14:15:00
9:35 AM,17.6,10.4,73,29.38,1.2,NW,17.3,28.8,N/A,,Overcast,320,2013-02-17 14:35:00
9:55 AM,19.4,10.4,68,29.39,1.8,NW,18.4,26.5,N/A,,Overcast,320,2013-02-17 14:55:00
10:15 AM,19.4,10.4,68,29.38,2.0,NW,18.4,26.5,N/A,,Overcast,320,2013-02-17 15:15:00
10:35 AM,19.4,8.6,63,29.38,4.0,NW,21.9,28.8,N/A,,Overcast,320,2013-02-17 15:35:00
11:15 AM,21.2,6.8,54,29.38,4.0,WNW,19.6,28.8,N/A,,Partly Cloudy,300,2013-02-17 16:15:00
11:35 AM,21.2,5.0,50,29.38,4.0,NW,15.0,29.9,N/A,,Clear,310,2013-02-17 16:35:00
11:55 AM,21.2,3.2,46,29.38,4.0,NW,19.6,28.8,N/A,,Clear,310,2013-02-17 16:55:00
12:15 PM,21.2,3.2,46,29.38,3.0,WNW,21.9,31.1,N/A,,Clear,290,2013-02-17 17:15:00
12:35 PM,21.2,3.2,46,29.39,2.5,WNW,20.7,31.1,N/A,,Clear,300,2013-02-17 17:35:00
12:55 PM,21.2,3.2,46,29.39,1.8,NW,19.6,36.8,N/A,,Clear,310,2013-02-17 17:55:00
1:15 PM,21.2,3.2,46,29.40,5.0,NW,19.6,34.5,N/A,,Clear,320,2013-02-17 18:15:00
1:36 PM,21.2,3.2,46,29.40,1.2,WNW,23.0,38.0,N/A,,Clear,300,2013-02-17 18:36:00
1:55 PM,23.0,3.2,43,29.41,3.0,WNW,21.9,33.4,N/A,,Clear,300,2013-02-17 18:55:00
2:35 PM,23.0,3.2,43,29.43,2.0,WNW,25.3,36.8,N/A,,Clear,300,2013-02-17 19:35:00
2:55 PM,23.0,1.4,39,29.43,1.0,NW,23.0,40.3,N/A,,Clear,320,2013-02-17 19:55:00
3:15 PM,23.0,3.2,43,29.44,4.0,WNW,25.3,38.0,N/A,,Clear,300,2013-02-17 20:15:00
3:35 PM,23.0,1.4,39,29.45,3.0,WNW,17.3,39.1,N/A,,Clear,300,2013-02-17 20:35:00
3:55 PM,24.8,1.4,36,29.46,3.0,WNW,23.0,36.8,N/A,,Clear,290,2013-02-17 20:55:00
4:15 PM,24.8,1.4,36,29.47,5.0,WNW,23.0,32.2,N/A,,Clear,290,2013-02-17 21:15:00
4:35 PM,24.8,1.4,36,29.47,3.0,WNW,20.7,34.5,N/A,,Clear,290,2013-02-17 21:35:00
4:55 PM,24.8,1.4,36,29.48,2.5,WNW,20.7,39.1,N/A,,Clear,300,2013-02-17 21:55:00
5:15 PM,24.8,1.4,36,29.50,7.0,WNW,20.7,32.2,N/A,,Clear,290,2013-02-17 22:15:00
5:55 PM,24.8,-0.4,34,29.52,10.0,WNW,20.7,28.8,N/A,,Clear,300,2013-02-17 22:55:00
6:15 PM,24.8,-0.4,34,29.53,4.0,WNW,25.3,39.1,N/A,,Clear,300,2013-02-17 23:15:00
6:35 PM,23.0,-0.4,36,29.53,10.0,West,17.3,26.5,N/A,,Clear,270,2013-02-17 23:35:00
6:55 PM,21.2,-0.4,39,29.54,9.0,West,24.2,35.7,N/A,,Clear,280,2013-02-17 23:55:00
7:15 PM,21.2,-0.4,39,29.55,10.0,West,21.9,28.8,N/A,,Clear,280,2013-02-18 00:15:00
7:35 PM,21.2,-0.4,39,29.55,10.0,West,21.9,33.4,N/A,,Clear,280,2013-02-18 00:35:00
7:55 PM,19.4,-0.4,42,29.56,9.0,West,17.3,33.4,N/A,,Clear,280,2013-02-18 00:55:00